Indianapolis, IN

3:36 PM EDT on May 26, 2017 (GMT -0400)
Indianapolis Terry

Weather History for KTYQ - April, 2014

Change the Weather History Date:

Saturday, April 26, 2014

  Actual Average (KEYE) Record (KEYE)
Temperature  
Mean Temperature 60 °F -  
Max Temperature 75 °F 64 °F 84 °F (2017)
Min Temperature 46 °F 44 °F 34 °F (2013)
Degree Days  
Heating Degree Days 4    
Growing Degree Days 10 (Base 50)    
Moisture  
Dew Point 41 °F    
Average Humidity 48    
Maximum Humidity 80    
Minimum Humidity 30    
Precipitation  
Precipitation 0.00 in - - ()
Sea Level Pressure  
Sea Level Pressure 29.91 in    
Wind  
Wind Speed 8 mph (NW)    
Max Wind Speed 15 mph    
Max Gust Speed 21 mph    
Visibility 10 miles    
Events      
Averages and records for this station are not official NWS values.
T = Trace of Precipitation, MM = Missing Value Source: NWS Daily Summary

Daily Weather History Graph

Daily Weather History Graph

Search for Another Location

Airport or City:

Trip Planner

Search our weather history database for the weather conditions in past years. The results will help you decide how hot, cold, wet, or windy it might be!

Date:

Astronomy

Apr. 26, 2014 Rise Set
Actual Time 6:51 AM EDT 8:34 PM EDT
Civil Twilight 6:22 AM EDT 9:03 PM EDT
Nautical Twilight 5:47 AM EDT 9:38 PM EDT
Astronomical Twilight 5:10 AM EDT 10:16 PM EDT
Moon 5:15 AM EDT 6:02 PM EDT
Length of Visible Light 14h 41m
Length of Day
13h 43m
Waning Crescent, 8% of the Moon is Illuminated
Apr 26
Waning Crescent
Apr 29
New
May 6
First Quarter
May 14
Full
May 21
Last Quarter

Hourly Weather History & Observations

Time (EDT) Temp. Windchill Dew Point Humidity Pressure Visibility Wind Dir Wind Speed Gust Speed Precip Events Conditions
12:15 AM 52.2 °F - 37.4 °F 57% 29.89 in 10.0 mi SW 6.9 mph - N/A   Clear
12:35 AM 52.0 °F - 37.8 °F 58% 29.89 in 10.0 mi SW 8.1 mph - N/A   Clear
12:55 AM 52.3 °F - 38.8 °F 60% 29.89 in 10.0 mi SW 8.1 mph - N/A   Scattered Clouds
1:15 AM 54.7 °F - 40.3 °F 58% 29.89 in 10.0 mi SW 8.1 mph - N/A   Mostly Cloudy
1:35 AM 54.7 °F - 40.3 °F 58% 29.89 in 10.0 mi SW 8.1 mph - N/A   Mostly Cloudy
1:55 AM 54.5 °F - 40.3 °F 59% 29.88 in 10.0 mi SW 9.2 mph - N/A   Mostly Cloudy
2:15 AM 54.7 °F - 40.6 °F 59% 29.88 in 10.0 mi SW 10.4 mph - N/A   Scattered Clouds
2:35 AM 55.4 °F - 41.0 °F 58% 29.87 in 10.0 mi SW 11.5 mph 16.1 mph N/A   Clear
2:55 AM 56.5 °F - 41.0 °F 56% 29.87 in 10.0 mi WSW 10.4 mph - N/A   Clear
3:15 AM 56.5 °F - 41.4 °F 57% 29.86 in 10.0 mi SW 11.5 mph - N/A   Mostly Cloudy
3:35 AM 57.0 °F - 41.2 °F 55% 29.86 in 10.0 mi SW 15.0 mph 20.7 mph N/A   Scattered Clouds
3:55 AM 56.8 °F - 41.0 °F 55% 29.86 in 10.0 mi SW 13.8 mph - N/A   Scattered Clouds
4:15 AM 56.7 °F - 41.0 °F 56% 29.86 in 10.0 mi SW 13.8 mph - N/A   Clear
4:35 AM 56.8 °F - 41.2 °F 56% 29.86 in 10.0 mi SW 11.5 mph - N/A   Mostly Cloudy
4:55 AM 55.4 °F - 41.2 °F 59% 29.88 in 10.0 mi NNW 8.1 mph - N/A   Scattered Clouds
5:15 AM 53.1 °F - 41.5 °F 65% 29.88 in 10.0 mi NW 6.9 mph - N/A   Scattered Clouds
5:35 AM 51.8 °F - 41.4 °F 68% 29.89 in 10.0 mi NW 4.6 mph - N/A   Clear
5:55 AM 50.9 °F - 41.0 °F 69% 29.89 in 10.0 mi NNW 3.5 mph - N/A   Clear
6:35 AM 50.2 °F - 41.0 °F 71% 29.90 in 10.0 mi WNW 3.5 mph - N/A   Clear
6:55 AM 48.9 °F - 40.6 °F 73% 29.91 in 10.0 mi Calm Calm - N/A   Clear
7:15 AM 48.2 °F - 40.6 °F 75% 29.91 in 10.0 mi Calm Calm - N/A   Clear
7:35 AM 46.4 °F 43.5 °F 40.5 °F 80% 29.91 in 10.0 mi SSW 5.8 mph - N/A   Clear
7:55 AM 51.8 °F - 43.9 °F 74% 29.92 in 10.0 mi SW 6.9 mph - N/A   Clear
8:15 AM 55.4 °F - 44.6 °F 67% 29.91 in 10.0 mi WSW 5.8 mph - N/A   Clear
8:35 AM 57.4 °F - 43.7 °F 60% 29.92 in 10.0 mi WSW 6.9 mph - N/A   Clear
8:55 AM 59.0 °F - 44.1 °F 58% 29.92 in 10.0 mi West 5.8 mph - N/A   Clear
9:15 AM 60.6 °F - 44.2 °F 55% 29.92 in 10.0 mi WSW 10.4 mph - N/A   Clear
9:35 AM 62.2 °F - 44.8 °F 53% 29.91 in 10.0 mi West 6.9 mph - N/A   Clear
9:55 AM 63.5 °F - 45.3 °F 52% 29.92 in 10.0 mi West 12.7 mph - N/A   Clear
10:15 AM 64.6 °F - 45.1 °F 49% 29.92 in 10.0 mi West 9.2 mph - N/A   Clear
10:35 AM 65.3 °F - 45.3 °F 48% 29.92 in 10.0 mi West 8.1 mph - N/A   Clear
10:55 AM 66.4 °F - 45.7 °F 47% 29.93 in 10.0 mi West 8.1 mph - N/A   Clear
11:15 AM 67.1 °F - 45.5 °F 46% 29.93 in 10.0 mi West 6.9 mph - N/A   Clear
11:35 AM 67.3 °F - 45.5 °F 45% 29.93 in 10.0 mi West 10.4 mph - N/A   Clear
11:55 AM 68.0 °F - 45.3 °F 44% 29.93 in 10.0 mi NW 8.1 mph - N/A   Clear
12:15 PM 69.4 °F - 45.7 °F 42% 29.93 in 10.0 mi West 5.8 mph - N/A   Clear
12:35 PM 69.6 °F - 45.0 °F 41% 29.93 in 10.0 mi West 6.9 mph - N/A   Clear
12:55 PM 70.0 °F - 43.9 °F 39% 29.93 in 10.0 mi WNW 5.8 mph - N/A   Clear
1:15 PM 71.2 °F - 44.2 °F 38% 29.92 in 10.0 mi NW 6.9 mph - N/A   Clear
1:35 PM 71.8 °F - 44.2 °F 37% 29.92 in 10.0 mi West 4.6 mph - N/A   Clear
1:55 PM 72.7 °F - 42.4 °F 34% 29.92 in 10.0 mi NNW 4.6 mph - N/A   Clear
2:15 PM 73.8 °F - 45.0 °F 36% 29.92 in 10.0 mi WNW 6.9 mph - N/A   Clear
2:35 PM 73.9 °F - 42.8 °F 33% 29.92 in 10.0 mi WNW 6.9 mph - N/A   Clear
2:55 PM 74.1 °F - 42.8 °F 32% 29.92 in 10.0 mi West 12.7 mph 18.4 mph N/A   Scattered Clouds
3:15 PM 75.7 °F - 42.8 °F 31% 29.92 in 10.0 mi North 6.9 mph - N/A   Scattered Clouds
3:35 PM 74.5 °F - 42.4 °F 32% 29.92 in 10.0 mi North 8.1 mph - N/A   Scattered Clouds
3:55 PM 73.8 °F - 42.3 °F 32% 29.92 in 10.0 mi NNE 9.2 mph - N/A   Clear
4:15 PM 73.9 °F - 41.9 °F 32% 29.91 in 10.0 mi NNE 10.4 mph - N/A   Clear
4:35 PM 73.6 °F - 41.2 °F 31% 29.91 in 10.0 mi North 6.9 mph - N/A   Clear
4:55 PM 74.3 °F - 41.4 °F 31% 29.91 in 10.0 mi North 6.9 mph - N/A   Clear
5:15 PM 74.3 °F - 41.0 °F 30% 29.92 in 10.0 mi North 10.4 mph - N/A   Clear
5:35 PM 73.2 °F - 40.8 °F 31% 29.91 in 10.0 mi North 12.7 mph - N/A   Clear
5:55 PM 71.8 °F - 40.3 °F 32% 29.91 in 10.0 mi North 11.5 mph 17.3 mph N/A   Clear
6:15 PM 71.6 °F - 40.6 °F 33% 29.91 in 10.0 mi NE 12.7 mph - N/A   Clear
6:35 PM 70.9 °F - 39.9 °F 32% 29.91 in 10.0 mi NNE 13.8 mph 17.3 mph N/A   Clear
6:55 PM 70.0 °F - 39.7 °F 33% 29.91 in 10.0 mi NNE 10.4 mph - N/A   Clear
7:15 PM 68.7 °F - 39.7 °F 35% 29.91 in 10.0 mi NE 9.2 mph - N/A   Clear
7:35 PM 67.3 °F - 40.5 °F 38% 29.91 in 10.0 mi NE 9.2 mph - N/A   Clear
7:55 PM 66.2 °F - 39.7 °F 38% 29.91 in 10.0 mi NE 8.1 mph - N/A   Clear
8:15 PM 64.4 °F - 39.9 °F 41% 29.91 in 10.0 mi NNE 8.1 mph - N/A   Clear
8:35 PM 63.3 °F - 39.2 °F 41% 29.92 in 10.0 mi NE 10.4 mph - N/A   Clear
8:55 PM 61.9 °F - 38.3 °F 42% 29.93 in 10.0 mi NE 8.1 mph - N/A   Clear
9:15 PM 60.8 °F - 36.9 °F 41% 29.94 in 10.0 mi NE 8.1 mph - N/A   Clear
9:35 PM 59.2 °F - 37.4 °F 44% 29.94 in 10.0 mi NE 8.1 mph - N/A   Clear
10:15 PM 58.1 °F - 36.9 °F 45% 29.95 in 10.0 mi NE 8.1 mph - N/A   Clear
10:35 PM 57.7 °F - 36.5 °F 45% 29.96 in 10.0 mi NE 9.2 mph - N/A   Clear
10:55 PM 57.4 °F - 35.8 °F 44% 29.96 in 10.0 mi NE 8.1 mph - N/A   Clear
11:15 PM 56.5 °F - 35.2 °F 45% 29.96 in 10.0 mi ENE 6.9 mph - N/A   Clear
11:35 PM 56.3 °F - 34.7 °F 44% 29.96 in 10.0 mi ENE 5.8 mph - N/A   Clear
11:55 PM 55.6 °F - 34.2 °F 44% 29.96 in 10.0 mi ENE 5.8 mph - N/A   Clear